Weather Service Report


677 
ASUS46 KLOX 240513
RWRCA 

SOUTHERN CALIFORNIA WEATHER ROUNDUP
NATIONAL WEATHER SERVICE OXNARD CALIFORNIA
1000 PM PDT FRI JUN 23 2017

NOTE: "FAIR" INDICATES FEW OR NO CLOUDS BELOW 12,000 FEET WITH NO 
SIGNIFICANT WEATHER AND/OR OBSTRUCTIONS TO VISIBILITY.

  -  STATIONS PRECEEDED BY AN ASTERISK (*) ARE NOT NWS OR FAA 
     STATIONS AND ARE NOT SUBJECT TO NWS AND FAA QUALITY CONTROL.

CAZ041-042-087-240600-
LA AND ORANGE COUNTY COASTAL AREAS

  
CITY           SKY/WX    TMP DP  RH WIND       PRES   REMARKS
L.A. DOWNTOWN  CLOUDY    65  60  84 CALM      29.92R                  
L.A. AIRPORT   CLOUDY    63  61  93 W8        29.92S                  
LONG BEACH     CLOUDY    64  59  83 NW8       29.92S                  

CITY           SKY/WX    TMP DP  RH WIND       PRES   REMARKS
AVALON           N/A     64 N/A N/A N1          N/A                   
FULLERTON      CLEAR     68  61  78 NW5       29.90S                  
*GETTY CENTER    N/A     59  57  94 VRB2        N/A                   
HAWTHORNE      CLOUDY    64  60  87 NW3       29.92S                  
*LEO CARRILLO    N/A     61  58  90 W3          N/A                   
*LOS ALAMITOS  PTCLDY    65  60  83 NW8       29.91S                  
*REDONDO BEACH   N/A     63  59  87 W3        29.92R                  
SANTA ANA      PTCLDY    65  61  87 S6        29.91S                  
STA MONICA APT CLOUDY    63  60  90 VRB3      29.92S                  
*UCLA            N/A     63  59  88 CALM      29.89S                  

$$

CAZ547-548-048-240600-
LA COUNTY VALLEYS AND INLAND EMPIRE

  
CITY           SKY/WX    TMP DP  RH WIND       PRES   REMARKS
BURBANK        CLEAR     67  59  75 SE6       29.92R                  
VAN NUYS       CLEAR     67  61  81 NE6       29.91S                  

CITY           SKY/WX    TMP DP  RH WIND       PRES   REMARKS
CORONA AIRPORT CLEAR     68  60  75 W5        29.92R                  
*CHATSWORTH      N/A     71  60  67 E5        29.87S                  
CHINO          CLEAR     69  61  75 W6        29.93R                  
*CLAREMONT       N/A     66  59  79 SW2         N/A                   
MARCH AFB      PTCLDY    70  60  70 W8        29.94R                  
*NORTHRIDGE      N/A     68  57  68 NE3         N/A                   
ONTARIO        PTCLDY    70  59  68 NW8       29.92R                  
*PASADENA        N/A     68  61  77 CALM        N/A                   
RIVERSIDE      PTCLDY    70  60  70 W8        29.92R                  
SAN BERNARDINO FAIR      74  58  57 W7        29.93R                  
*SAN RAFAEL HI   N/A     64  59  83 NE6         N/A                   
*SAUGUS          N/A     70  59  67 W2          N/A                   
*WHITEMAN AP   NOT AVBL                                               
*WHITTIER HILL   N/A     61  60  96 NW3         N/A                   
*WOODLAND HILL   N/A     70  59  68 NE2         N/A                   

$$

CAZ054-055-240600-
LA AND SAN BERNARDINO COUNTY MOUNTAINS

  
CITY           SKY/WX    TMP DP  RH WIND       PRES   REMARKS
*BIG BEAR AIRP MOCLDY    66  32  28 CALM      30.30S                  
*BIG PINES       N/A     72  28  19 CALM        N/A                   
*CHILAO          N/A     81  32  17 N7          N/A                   
SANDBERG       CLEAR     82  51  34 NW17      30.14R                  
*WARM SPRINGS    N/A     76  52  42 W7          N/A                   

$$

CAZ028-029-059-060-099-240600-
ANTELOPE VALLEY AND SURROUNDING AREAS

  
CITY           SKY/WX    TMP DP  RH WIND       PRES   REMARKS
LANCASTER      CLEAR     85  46  25 W9        29.92S                  
PALMDALE       CLEAR     85  45  24 S12       29.94S                  
*POPPY PARK      N/A     85  48  27 W9          N/A                   

CITY           SKY/WX    TMP DP  RH WIND       PRES   REMARKS
29 PALMS       MOCLDY   100  29   8 NW12      29.89R HX  93           
BARSTOW/DAGGET CLEAR     99  39  12 SW18      29.83R HX  94           
BISHOP         PTCLDY    86  44  23 N12       30.04R                  
CHINA LAKE     CLEAR     91  28  10 S6        29.84R                  
EDWARDS AFB    PTCLDY    86  43  22 SW14      29.89R                  
MOJAVE         CLEAR     91  48  22 NW26G35   29.91S                  
NEEDLES        PTCLDY   109  41  10 SW12      29.69R HX 103           
VICTORVILLE    CLEAR     88  39  18 SE5       29.97R                  

$$

CAZ039-040-240600-
VENTURA AND SANTA BARBARA COUNTY COAST

  
CITY           SKY/WX    TMP DP  RH WIND       PRES   REMARKS
CAMARILLO      CLOUDY    62  59  90 NW3       29.92S                  
NWS OXNARD       N/A     62  57  84 CALM      29.91S                  
OXNARD AIRPORT CLOUDY    62  58  86 W10       29.92S                  
*POINT MUGU    CLOUDY    62  57  83 NW7       29.92S                  
SBA APT/GOLETA MOCLDY    60  58  92 CALM      29.91S                  
*SANTA BARBARA   N/A     61  55  81 CALM      29.98F                  
*VENTURA         N/A     62  59  88 E1        29.89F                  

$$

CAZ044-045-240600-
VENTURA COUNTY VALLEYS

  
CITY           SKY/WX    TMP DP  RH WIND       PRES   REMARKS
*SIMI VALLEY     N/A     64  59  83 NW1       29.86S                  
*WESTLAKE VILL   N/A     60  56  85 CALM      29.87F                  
*OJAI            N/A     64  57  80 CALM      29.84F                  
*FILLMORE        N/A     61  58  88 CALM      29.95S                  

$$

CAZ053-240600-
VENTURA COUNTY MOUNTAINS

  
CITY           SKY/WX    TMP DP  RH WIND       PRES   REMARKS
*LOCKWOOD VLY    N/A     66  45  45 MISG        N/A                   
*FRAZIER MTN     N/A     65  35  32 NW6       29.91R                  
*ROSE VALLEY     N/A    N/A N/A N/A MISG        N/A                   

$$

CAZ034-035-036-240600-
CENTRAL COAST AND SANTA YNEZ VALLEY

  
CITY           SKY/WX    TMP DP  RH WIND       PRES   REMARKS
SAN LUIS OBISP CLEAR     57  55  93 NW5       29.95S                  
SANTA MARIA    CLOUDY    57  56  96 NW5       29.96S                  

CITY           SKY/WX    TMP DP  RH WIND       PRES   REMARKS
*CAL POLY SLO    N/A     57  55  94 SW3G10      N/A                   
*LOMPOC        CLOUDY    58  55  90 W6        29.96R                  
*PISMO BEACH     N/A     58  56  93 CALM      29.95F                  
*SANTA YNEZ    FAIR      59  54  82 W6        29.95R                  

$$

CAZ037-038-051-240600-
SAN LUIS OBISPO COUNTY INTERIOR AND CUYAMA VALLEY

  
CITY           SKY/WX    TMP DP  RH WIND       PRES   REMARKS
*CUYAMA          N/A     75  50  41 CALM      29.81R                  
PASO ROBLES      N/A     67  54  63 SW7       29.92R                  

$$

CAZ032-033-061-240600-
SOUTHERN DESERTS

  
CITY           SKY/WX    TMP DP  RH WIND       PRES   REMARKS
BLYTHE         PTCLDY    99  50  19 S12       29.68R HX  96           
IMPERIAL       PTCLDY    93  68  43 SE6       29.66R HX  97           
PALM SPRINGS   PTCLDY    99  54  22 NW14      29.73R HX  97           
THERMAL        CLEAR     93  56  28 NW5       29.66R HX  91           

$$

ELSEWHERE ACROSS THE WESTERN UNITED STATES AND MEXICO

  
CITY           SKY/WX    TMP DP  RH WIND       PRES   REMARKS
DEATH VALLEY,    N/A    112  33   7 SE3         N/A  HX 104           
DENVER, CO     MOCLDY    54  46  74 SW5       30.34R                  
GRAND CANYON,  CLEAR     60  28  29 CALM      30.23R                  
HONOLULU, HI   PTCLDY    81  64  57 E13       29.94R                  
KAHULUI, MAUI  PTCLDY    79  66  65 NE20      29.92R                  
LAKE TAHOE, CA CLEAR     65  51  60 CALM      30.30R                  
LAS VEGAS, NV  PTCLDY   101  25   7 W6        29.78R HX  94           
MAMMOTH LAKES, FAIR      65  41  42 CALM      30.35R                  
MEXICO CITY, M PTCLDY    68  50  52 N8        30.26S                  
PHOENIX, AZ    MOCLDY   104  45  13 W10       29.71R HX 100           
PORTLAND, OR   CLEAR     75  52  44 W6        30.03R                  
RENO, NV       PTCLDY    86  36  16 NW7       30.13R                  
SALT LAKE CITY CLEAR     74  39  28 SE3       30.14R                  
SAN DIEGO, CA  MOCLDY    67  61  81 NW8       29.93S                  
SAN FRANCISCO, PTCLDY    59  55  87 W14       29.94R                  
SAN JOSE, CA   PTCLDY    65  59  81 W10       29.93R                  
SEATTLE, WA    CLEAR     67  51  56 N9        30.15R                  
TIJUANA, MEX   PTCLDY    64  57  77 CALM      29.94S                  

$$
  
STATION/POSITION TIME  TEMP    WIND        PRES    VSBY  WAVE
                       AIR SEA DIR/SP/G                  HT/PER
                 (UTC) (F)     (DEG/KT/KT) (MB)    (MI)  (FT/S)
POINT ARGUELLO B NOT AVBL
WEST SANTA BARBA 0500   57 58  310/ 19/ 25 1012.5
POINT CONCEPTION NOT AVBL
EAST SANTA BARBA 0500   59 63  260/ 10/ 12 1013.4
SANTA MONICA BAY 0500   61 66  310/ 10/ 14 1012.6

Return to Home page


Western Regional Climate Center, wrcc@dri.edu